This demonstration page uses our WeatherBlox Daily Observations layout. Learn more.

Left ArrowRight Arrow

Hourly Observations for August 9, 2015

Temp ( °F °C ) Dew Point ( °F °C ) Humidity (%) Winds ( mph kmh ) Pressure ( in mb ) Visibility ( mi km ) Precip ( " mm )
12:15 am 00:15 Clear with Mist and Fog 71 21.8 70 20.9 95 95 SSE 3 6 29.83 1010 5 8 N/A
12:35 am 00:35 Clear with Mist and Fog 71 21.7 70 21 96 96 S 3 6 29.83 1010 5 8 N/A
12:55 am 00:55 Partly Cloudy with Mist and Fog 71 21.7 70 20.9 95 95 Calm 29.83 1010 5 8 N/A
1:15 am 01:15 Mostly Cloudy with Mist and Fog 70 21.3 69 20.5 95 95 Calm 29.83 1010 5 8 N/A
1:35 am 01:35 Partly Cloudy with Mist and Fog 70 21.1 69 20.4 96 96 N 5 7 29.83 1010 3 5 N/A
1:55 am 01:55 Clear with Mist and Fog 70 20.9 68 20.2 96 96 N 3 6 29.83 1010 3 4 N/A
2:15 am 02:15 Mostly Cloudy with Mist and Fog 70 21 69 20.3 96 96 Calm 29.83 1010 3 5 N/A
2:35 am 02:35 Cloudy with Mist and Fog 70 21 69 20.5 97 97 NNE 3 6 29.83 1010 3 5 N/A
2:55 am 02:55 Cloudy with Mist and Fog 71 21.4 69 20.8 96 96 Calm 29.83 1010 3 5 N/A
3:15 am 03:15 Cloudy with Mist and Fog 70 21.2 69 20.6 96 96 Calm 29.83 1010 4 6 N/A
3:35 am 03:35 Cloudy with Mist and Fog 70 21.3 69 20.7 96 96 Calm 29.83 1010 3 5 N/A
3:55 am 03:55 Mostly Cloudy with Mist and Fog 70 21.3 69 20.7 96 96 W 3 6 29.83 1010 3 5 N/A
4:15 am 04:15 Partly Cloudy with Mist and Fog 70 21 69 20.4 96 96 NW 3 6 29.83 1010 3 5 N/A
4:35 am 04:35 Clear with Mist and Fog 69 20.6 68 20 96 96 NW 3 6 29.83 1010 3 4 N/A
4:55 am 04:55 Partly Cloudy with Mist and Fog 69 20.3 67 19.7 96 96 Calm 29.83 1010 3 4 N/A
5:15 am 05:15 Cloudy with Fog 69 20.4 68 19.8 96 96 Calm 29.83 1010 0 0 N/A
5:35 am 05:35 Cloudy with Fog 69 20.3 68 19.8 97 97 Calm 29.83 1010 0 0 N/A
5:55 am 05:55 Cloudy with Mist and Fog 69 20.3 68 19.8 97 97 Calm 29.85 1011 1 1 N/A
6:15 am 06:15 Cloudy with Mist and Fog 69 20.8 69 20.3 97 97 Calm 29.85 1011 3 4 N/A
6:35 am 06:35 Cloudy with Mist and Fog 70 21.2 69 20.7 97 97 NNE 5 7 29.85 1011 3 5 N/A
6:55 am 06:55 Cloudy with Mist and Fog 71 21.7 70 21.2 97 97 NNE 5 7 29.88 1012 3 4 N/A
7:15 am 07:15 Mostly Cloudy with Mist and Fog 71 21.8 70 21.3 97 97 Calm 29.88 1012 3 4 N/A
7:35 am 07:35 Sunny with Mist and Fog 71 21.8 70 21.3 97 97 Calm 29.88 1012 2 3 N/A
7:55 am 07:55 Sunny with Mist and Fog 73 22.5 72 22 97 97 Calm 29.88 1012 3 5 N/A
8:15 am 08:15 Partly Cloudy with Mist and Fog 73 22.6 72 22.1 97 97 E 6 9 29.88 1012 4 6 N/A
8:35 am 08:35 Mostly Cloudy with Mist and Fog 73 23 73 22.5 97 97 SE 9 15 29.88 1012 4 6 N/A
8:55 am 08:55 Cloudy with Mist and Fog 73 23 73 22.5 97 97 SE 8 13 29.88 1012 3 4 N/A
9:15 am 09:15 Cloudy with Mist and Fog 73 23 73 22.5 97 97 ESE 8 13 29.88 1012 3 5 N/A
9:35 am 09:35 Cloudy with Mist and Fog 74 23.1 73 22.5 96 96 ESE 8 13 29.88 1012 4 6 N/A
9:55 am 09:55 Cloudy with Mist and Fog 74 23.4 73 22.8 96 96 SE 7 11 29.88 1012 5 8 N/A
10:15 am 10:15 Partly Cloudy 75 24 74 23.3 96 96 ESE 9 15 29.85 1011 7 11 N/A
10:35 am 10:35 Partly Cloudy 77 24.8 74 23.6 93 93 E 7 11 29.85 1011 10 16 N/A
10:55 am 10:55 Partly Cloudy 79 26.2 75 23.8 87 87 SSE 7 11 29.85 1011 10 16 N/A
11:15 am 11:15 Partly Cloudy 79 26 74 23.2 85 85 SSE 8 13 29.85 1011 10 16 N/A
11:35 am 11:35 Mostly Cloudy 79 26.1 74 23.2 84 84 SW 5 7 29.85 1011 10 16 N/A
11:55 am 11:55 Mostly Cloudy 80 26.4 73 23 82 82 SSW 6 9 29.88 1012 10 16 N/A
12:15 pm 12:15 Partly Cloudy 81 27 74 23.2 80 80 Calm 29.85 1011 10 16 N/A
12:35 pm 12:35 Sunny 81 27.2 74 23.4 80 80 S 3 6 29.85 1011 10 16 N/A
12:55 pm 12:55 Sunny 82 27.8 73 22.9 75 75 Calm 29.83 1010 10 16 N/A
1:15 pm 13:15 Sunny 82 28 73 23 74 74 Calm 29.85 1011 10 16 N/A
1:35 pm 13:35 Partly Cloudy 83 28.2 74 23.3 75 75 W 5 7 29.83 1010 10 16 N/A
1:55 pm 13:55 Partly Cloudy 82 28 74 23.2 75 75 NW 6 9 29.83 1010 10 16 N/A
2:15 pm 14:15 Partly Cloudy 82 27.5 75 23.7 80 80 NNW 9 15 29.85 1011 10 16 N/A
2:35 pm 14:35 Mostly Cloudy 82 27.8 74 23.6 78 78 NW 9 15 29.85 1011 10 16 N/A
2:55 pm 14:55 Mostly Cloudy 82 28 75 23.7 78 78 NNW 7 11 29.85 1011 10 16 N/A
3:15 pm 15:15 Partly Cloudy 83 28.5 75 23.7 75 75 N 5 7 29.83 1010 10 16 N/A
3:35 pm 15:35 Sunny 84 29.1 75 24 74 74 NW 6 9 29.83 1010 10 16 N/A
3:55 pm 15:55 Sunny 84 28.9 74 23.2 71 71 WNW 6 9 29.83 1010 10 16 N/A
4:15 pm 16:15 Sunny 85 29.4 74 23.1 69 69 NW 5 7 29.83 1010 10 16 N/A
4:35 pm 16:35 Sunny 85 29.6 74 23.2 69 69 WNW 5 7 29.83 1010 10 16 N/A
4:55 pm 16:55 Sunny 86 29.8 73 22.9 67 67 WNW 5 7 29.83 1010 10 16 N/A
5:15 pm 17:15 Sunny 86 30 71 21.9 62 62 Calm 29.83 1010 10 16 N/A
5:35 pm 17:35 Sunny 86 30.1 71 21.9 62 62 Calm 29.83 1010 10 16 N/A
5:55 pm 17:55 Sunny 86 30 72 22 62 62 WSW 3 6 29.83 1010 10 16 N/A
6:15 pm 18:15 Sunny 86 30 70 20.9 58 58 W 5 7 29.83 1010 10 16 N/A
6:35 pm 18:35 Sunny 86 29.8 71 21.8 62 62 W 6 9 29.83 1010 10 16 N/A
6:55 pm 18:55 Sunny 85 29.6 72 22.4 65 65 W 5 7 29.83 1010 10 16 N/A
7:15 pm 19:15 Sunny 84 29.1 73 22.5 68 68 W 5 7 29.83 1010 10 16 N/A
7:35 pm 19:35 Sunny 84 29 74 23.1 71 71 Calm 29.83 1010 10 16 N/A
7:55 pm 19:55 Sunny 83 28.3 75 23.7 76 76 Calm 29.83 1010 10 16 N/A
8:15 pm 20:15 Sunny 82 27.6 75 23.7 79 79 N 3 6 29.83 1010 10 16 N/A
8:35 pm 20:35 Sunny 79 26.2 73 23 83 83 N 5 7 29.85 1011 10 16 N/A
8:55 pm 20:55 Clear 77 25 73 22.6 87 87 N 7 11 29.85 1011 10 16 N/A
9:15 pm 21:15 Clear 76 24.6 73 22.6 89 89 Calm 29.85 1011 10 16 N/A
9:35 pm 21:35 Clear 76 24.6 73 22.5 88 88 Calm 29.88 1012 10 16 N/A
9:55 pm 21:55 Clear 75 23.7 71 21.8 89 89 W 3 6 29.88 1012 10 16 N/A
10:15 pm 22:15 Clear 74 23.4 71 21.7 90 90 WSW 5 7 29.91 1013 10 16 N/A
10:35 pm 22:35 Clear 74 23.2 71 21.7 91 91 Calm 29.94 1014 10 16 N/A
10:55 pm 22:55 Clear 73 22.8 71 21.5 92 92 NE 3 6 29.94 1014 7 11 N/A
11:15 pm 23:15 Clear with Mist and Fog 73 22.7 71 21.6 94 94 NNE 3 6 29.94 1014 5 8 N/A
11:35 pm 23:35 Clear 73 22.7 71 21.5 93 93 Calm 29.94 1014 7 11 N/A
11:55 pm 23:55 Clear 73 22.5 71 21.5 94 94 Calm 29.94 1014 7 11 N/A

Powered by AerisWeather